GW2731 Weather Reports


time (UTC)temp
C
wind
direction
speed
KPH
gust
KPH
rain 1hr
cm
rain 24hr
cm
rain mn
cm
humidity
%
barometer
mb
20260507092307 7 138 0.0 0.0 0.00 0.00 0.00 86 1021.8
20260507091803 7 138 0.0 0.0 0.00 0.00 0.00 85 1021.7
20260507091259 7 138 0.0 0.0 0.00 0.00 0.00 85 1021.8
20260507090754 7 137 0.0 0.0 0.00 0.00 0.00 86 1021.6
20260507090251 7 137 0.0 0.0 0.00 0.00 0.00 86 1021.7
20260507085748 7 137 0.0 0.0 0.00 0.00 0.00 86 1021.7
20260507085244 7 137 0.0 0.0 0.00 0.00 0.00 85 1021.9
20260507084742 7 137 0.0 0.0 0.00 0.00 0.00 85 1021.6
20260507084238 7 136 0.0 0.0 0.00 0.00 0.00 86 1021.7
20260507083735 7 131 0.0 0.0 0.00 0.00 0.00 88 1022.0
20260507083232 7 130 0.0 0.0 0.00 0.00 0.00 89 1021.6
20260507082728 7 130 0.0 0.0 0.00 0.00 0.00 89 1021.5
20260507082224 7 130 0.0 0.0 0.00 0.00 0.00 89 1021.7
20260507081721 7 129 0.0 0.0 0.00 0.00 0.00 87 1021.6
20260507081217 7 129 0.0 0.0 0.00 0.00 0.00 87 1021.6
20260507080714 7 129 0.0 0.0 0.00 0.00 0.00 87 1021.5
20260507080210 7 129 0.0 0.0 0.00 0.00 0.00 86 1021.5
20260507075705 7 129 0.0 0.0 0.00 0.00 0.00 86 1021.8
20260507075202 7 128 0.0 0.0 0.00 0.00 0.00 86 1021.7
20260507074658 8 127 0.0 0.0 0.00 0.00 0.00 85 1021.8
20260507074156 8 126 0.0 0.0 0.00 0.00 0.00 83 1021.6
20260507073653 8 124 0.0 0.0 0.00 0.00 0.00 82 1021.8
20260507073149 7 121 0.0 0.0 0.00 0.00 0.00 86 1021.6
20260507072647 7 120 0.0 0.0 0.00 0.00 0.00 85 1021.7
20260507072144 7 118 0.0 0.0 0.00 0.00 0.00 85 1021.8
20260507071642 7 117 0.0 0.0 0.00 0.00 0.00 84 1021.9
20260507071138 8 116 0.0 0.0 0.00 0.00 0.00 84 1021.9
20260507070635 8 113 0.0 0.0 0.00 0.00 0.00 83 1021.9
20260507070132 8 110 0.0 0.0 0.00 0.00 0.00 81 1022.0
20260507065628 8 109 0.0 0.0 0.00 0.00 0.00 80 1022.0
20260507065125 9 102 0.0 0.0 0.00 0.00 0.00 79 1022.0
20260507064623 9 88 0.0 0.0 0.00 0.00 0.00 78 1022.0
20260507064122 9 45 0.0 1.6 0.00 0.00 0.00 77 1022.1
20260507063618 10 40 1.6 1.6 0.00 0.00 0.00 76 1021.9
20260507063115 10 33 1.6 1.6 0.00 0.00 0.00 76 1021.9
20260507062612 10 28 1.6 3.2 0.00 0.00 0.00 76 1021.9
20260507062110 10 23 3.2 3.2 0.00 0.00 0.00 75 1021.9
20260507061607 10 22 3.2 3.2 0.00 0.00 0.00 75 1022.0
20260507061105 10 18 0.0 3.2 0.00 0.00 0.00 74 1021.7
20260507060603 10 14 0.0 1.6 0.00 0.00 0.00 75 1021.6
20260507060059 10 357 3.2 6.4 0.00 0.00 0.00 74 1021.6
20260507055554 11 20 3.2 4.8 0.00 0.00 0.00 69 1021.5
20260507055051 11 65 3.2 4.8 0.00 0.00 0.00 67 1021.6
20260507054547 11 88 3.2 3.2 0.00 0.00 0.00 66 1021.6
20260507054044 11 102 1.6 3.2 0.00 0.00 0.00 66 1021.6
20260507053542 11 107 0.0 0.0 0.00 0.00 0.00 67 1021.5
20260507053041 11 99 1.6 3.2 0.00 0.00 0.00 67 1021.5
20260507052538 11 99 1.6 3.2 0.00 0.00 0.00 67 1021.5
20260507052034 11 95 1.6 3.2 0.00 0.00 0.00 67 1021.6
20260507051532 11 78 1.6 4.8 0.00 0.00 0.00 67 1021.4
20260507051029 11 93 3.2 3.2 0.00 0.00 0.00 67 1021.4
20260507050525 11 55 3.2 4.8 0.00 0.00 0.00 67 1021.4
20260507050022 11 90 1.6 4.8 0.00 0.00 0.00 67 1021.3
20260507045518 11 105 1.6 3.2 0.00 0.00 0.00 67 1021.5
20260507045016 11 106 3.2 3.2 0.00 0.00 0.00 67 1021.5
20260507044512 11 102 3.2 3.2 0.00 0.00 0.00 67 1021.6
20260507044009 11 94 1.6 3.2 0.00 0.00 0.00 67 1021.5
20260507043505 11 86 1.6 4.8 0.00 0.00 0.00 67 1021.3
20260507043002 11 104 0.0 3.2 0.00 0.00 0.00 67 1021.4
20260507042458 11 84 1.6 3.2 0.00 0.00 0.00 67 1021.3
20260507041954 11 43 1.6 3.2 0.00 0.00 0.00 66 1021.5
20260507041451 11 21 3.2 6.4 0.00 0.00 0.00 66 1021.4
20260507040948 12 11 4.8 6.4 0.00 0.00 0.00 66 1021.3
20260507040444 12 358 3.2 9.7 0.00 0.00 0.00 66 1021.4
20260507035940 12 15 3.2 6.4 0.00 0.00 0.00 66 1021.4
20260507035437 12 20 1.6 6.4 0.00 0.00 0.00 66 1021.3
20260507034933 12 11 4.8 6.4 0.00 0.00 0.00 65 1021.3
20260507034430 12 8 4.8 6.4 0.00 0.00 0.00 65 1021.4
20260507033928 12 357 4.8 6.4 0.00 0.00 0.00 65 1021.3
20260507033426 12 8 6.4 9.7 0.00 0.00 0.00 64 1021.2
20260507032922 12 3 8.0 9.7 0.00 0.00 0.00 64 1021.2
20260507032420 12 8 6.4 9.7 0.00 0.00 0.00 64 1020.9
20260507031915 12 15 4.8 9.7 0.00 0.00 0.00 64 1021.1
20260507031412 12 358 6.4 9.7 0.00 0.00 0.00 64 1021.0
20260507030909 12 6 6.4 9.7 0.00 0.00 0.00 64 1021.1
20260507030406 12 19 3.2 6.4 0.00 0.00 0.00 65 1021.2
20260507025903 12 337 4.8 4.8 0.00 0.00 0.00 64 1021.0
20260507025401 13 9 4.8 9.7 0.00 0.00 0.00 62 1021.0
20260507024858 13 21 3.2 6.4 0.00 0.00 0.00 62 1020.7
20260507024355 13 16 6.4 9.7 0.00 0.00 0.00 62 1020.6
20260507023851 13 17 8.0 9.7 0.00 0.00 0.00 62 1020.7
20260507023348 13 35 3.2 4.8 0.00 0.00 0.00 62 1020.6
20260507022845 13 23 4.8 4.8 0.00 0.00 0.00 62 1020.5
20260507022342 13 22 4.8 6.4 0.00 0.00 0.00 61 1020.4
20260507021838 13 13 4.8 9.7 0.00 0.00 0.00 61 1020.4
20260507021333 13 5 4.8 9.7 0.00 0.00 0.00 61 1020.3
20260507020831 13 7 4.8 9.7 0.00 0.00 0.00 61 1020.3
20260507020322 13 33 6.4 6.4 0.00 0.00 0.00 61 1020.3
20260507015819 13 6 3.2 4.8 0.00 0.00 0.00 61 1020.2
20260507015317 13 357 4.8 4.8 0.00 0.00 0.00 61 1020.1
20260507014814 13 12 4.8 6.4 0.00 0.00 0.00 60 1020.0
20260507014310 13 9 1.6 4.8 0.00 0.00 0.00 60 1020.0
20260507013806 14 5 3.2 4.8 0.00 0.00 0.00 59 1020.1
20260507013304 14 24 4.8 4.8 0.00 0.00 0.00 58 1020.0
20260507012801 14 15 3.2 4.8 0.00 0.00 0.00 58 1019.6
20260507012257 14 64 1.6 4.8 0.00 0.00 0.00 58 1019.6
20260507011754 15 49 3.2 4.8 0.00 0.00 0.00 58 1019.7
20260507011251 15 52 3.2 4.8 0.00 0.00 0.00 57 1019.5
20260507010750 15 58 3.2 4.8 0.00 0.00 0.00 56 1019.5
20260507010246 15 47 3.2 6.4 0.00 0.00 0.00 56 1019.4
20260507005744 15 59 3.2 4.8 0.00 0.00 0.00 55 1019.5
20260507005240 15 51 3.2 6.4 0.00 0.00 0.00 54 1019.5
20260507004737 15 35 3.2 6.4 0.00 0.00 0.00 54 1019.3
20260507004235 16 83 3.2 9.7 0.00 0.00 0.00 54 1019.5
20260507003731 16 63 3.2 6.4 0.00 0.00 0.00 54 1019.4
20260507003226 16 37 3.2 4.8 0.00 0.00 0.00 54 1019.4
20260507002722 16 90 6.4 11.3 0.00 0.00 0.00 53 1019.2
20260507002219 16 37 4.8 11.3 0.00 0.00 0.00 53 1019.2
20260507001715 16 351 6.4 11.3 0.00 0.00 0.00 53 1019.1
20260507001213 16 45 3.2 9.7 0.00 0.00 0.00 55 1019.3
20260507000709 16 69 3.2 9.7 0.00 0.00 0.00 55 1019.0
20260507000205 16 17 6.4 11.3 0.00 0.00 0.00 54 1019.2
20260506235702 16 43 4.8 6.4 0.00 0.00 0.00 54 1019.0
20260506235157 16 55 3.2 9.7 0.00 0.00 0.00 53 1019.4
20260506234654 16 24 8.0 14.5 0.00 0.00 0.00 53 1019.3
20260506234151 16 56 6.4 14.5 0.00 0.00 0.00 52 1019.1
20260506233649 17 86 4.8 17.7 0.00 0.00 0.00 52 1019.1
20260506233145 17 99 3.2 6.4 0.00 0.00 0.00 50 1019.2
20260506232642 17 45 8.0 12.9 0.00 0.00 0.00 51 1019.0
20260506232137 17 7 9.7 14.5 0.00 0.00 0.00 50 1019.1
20260506231634 17 18 4.8 12.9 0.00 0.00 0.00 52 1019.0
20260506231133 17 37 4.8 12.9 0.00 0.00 0.00 52 1019.0
20260506230629 17 46 4.8 14.5 0.00 0.00 0.00 53 1019.1
20260506230126 17 37 6.4 14.5 0.00 0.00 0.00 51 1019.0
20260506225623 17 99 6.4 16.1 0.00 0.00 0.00 51 1018.9
20260506225119 17 17 6.4 14.5 0.00 0.00 0.00 50 1018.8
20260506224616 17 22 6.4 16.1 0.00 0.00 0.00 49 1018.8
20260506224113 16 36 8.0 14.5 0.00 0.00 0.00 51 1018.7
20260506223609 16 32 9.7 14.5 0.00 0.00 0.00 53 1018.7
20260506223105 16 14 8.0 11.3 0.00 0.00 0.00 52 1018.6
20260506222602 16 50 8.0 17.7 0.00 0.00 0.00 51 1018.4
20260506222058 17 40 6.4 17.7 0.00 0.00 0.00 52 1018.4
20260506221556 17 38 14.5 16.1 0.00 0.00 0.00 51 1018.5
20260506221054 17 46 9.7 20.9 0.00 0.00 0.00 51 1018.3
20260506220550 16 22 9.7 14.5 0.00 0.00 0.00 51 1018.6
20260506220045 16 1 14.5 22.5 0.00 0.00 0.00 52 1018.3
20260506215543 16 76 8.0 11.3 0.00 0.00 0.00 52 1018.4
20260506215038 16 314 9.7 25.7 0.00 0.00 0.00 52 1018.2
20260506214535 17 18 14.5 16.1 0.00 0.00 0.00 52 1018.0
20260506214033 17 61 6.4 17.7 0.00 0.00 0.00 53 1018.0
20260506213530 17 45 14.5 25.7 0.00 0.00 0.00 51 1018.0
20260506213027 17 4 6.4 16.1 0.00 0.00 0.00 52 1018.2
20260506212524 17 52 9.7 17.7 0.00 0.00 0.00 52 1018.2
20260506212019 17 21 17.7 17.7 0.00 0.00 0.00 51 1018.2
20260506211515 17 0 16.1 25.7 0.00 0.00 0.00 52 1018.2
20260506211013 16 16 9.7 17.7 0.00 0.00 0.00 55 1018.2
20260506210509 17 7 11.3 16.1 0.00 0.00 0.00 54 1018.2
20260506210006 16 7 12.9 22.5 0.00 0.00 0.00 54 1018.6
20260506205502 16 25 9.7 17.7 0.00 0.00 0.00 56 1018.5
20260506204958 16 22 9.7 16.1 0.00 0.00 0.00 56 1018.4
20260506204456 16 18 8.0 17.7 0.00 0.00 0.00 56 1018.5
20260506203953 16 79 6.4 11.3 0.00 0.00 0.00 57 1018.7
20260506203450 16 0 9.7 16.1 0.00 0.00 0.00 57 1018.7
20260506202947 16 67 1.6 9.7 0.00 0.00 0.00 58 1018.8
20260506202444 16 10 9.7 16.1 0.00 0.00 0.00 58 1019.0
20260506201940 16 40 6.4 14.5 0.00 0.00 0.00 57 1018.9
20260506201438 16 85 6.4 17.7 0.00 0.00 0.00 57 1019.1
20260506200934 16 43 4.8 11.3 0.00 0.00 0.00 56 1019.1
20260506200431 16 35 8.0 16.1 0.00 0.00 0.00 56 1019.0
20260506195927 16 73 12.9 20.9 0.00 0.00 0.00 55 1019.1
20260506195425 16 19 9.7 17.7 0.00 0.00 0.00 55 1019.1
20260506194921 16 52 4.8 11.3 0.00 0.00 0.00 56 1019.2
20260506194419 17 49 12.9 16.1 0.00 0.00 0.00 55 1019.0
20260506193915 16 337 11.3 16.1 0.00 0.00 0.00 54 1018.9
20260506193412 16 9 12.9 16.1 0.00 0.00 0.00 55 1019.1
20260506192909 17 42 9.7 24.1 0.00 0.00 0.00 54 1019.0
20260506192406 17 349 17.7 24.1 0.00 0.00 0.00 52 1019.5
20260506191903 17 31 4.8 12.9 0.00 0.00 0.00 54 1019.2
20260506191359 17 61 6.4 12.9 0.00 0.00 0.00 55 1019.5
20260506190856 16 73 6.4 11.3 0.00 0.00 0.00 56 1019.5
20260506190352 16 99 4.8 17.7 0.00 0.00 0.00 56 1019.8
20260506185849 16 76 4.8 17.7 0.00 0.00 0.00 57 1019.9
20260506185346 16 67 4.8 12.9 0.00 0.00 0.00 56 1019.6
20260506184843 15 32 11.3 17.7 0.00 0.00 0.00 56 1019.9
20260506184340 16 31 8.0 16.1 0.00 0.00 0.00 56 1019.7
20260506183838 15 22 11.3 14.5 0.00 0.00 0.00 56 1019.5
20260506183333 15 48 6.4 11.3 0.00 0.00 0.00 57 1020.0
20260506182831 15 26 8.0 12.9 0.00 0.00 0.00 57 1019.8
20260506182327 15 102 6.4 12.9 0.00 0.00 0.00 57 1019.9
20260506181825 16 88 11.3 14.5 0.00 0.00 0.00 57 1020.0
20260506181323 16 88 11.3 20.9 0.00 0.00 0.00 55 1019.8
20260506180820 16 4 11.3 16.1 0.00 0.00 0.00 55 1020.3
20260506180316 15 76 4.8 11.3 0.00 0.00 0.00 55 1020.2
20260506175812 16 21 11.3 24.1 0.00 0.00 0.00 55 1020.1
20260506175309 15 37 9.7 12.9 0.00 0.00 0.00 56 1020.2
20260506174806 15 16 9.7 20.9 0.00 0.00 0.00 59 1020.5
20260506174303 15 359 8.0 20.9 0.00 0.00 0.00 58 1020.4
20260506173801 15 340 9.7 17.7 0.00 0.00 0.00 57 1020.4
20260506173258 15 9 8.0 14.5 0.00 0.00 0.00 58 1020.4
20260506172754 15 16 4.8 12.9 0.00 0.00 0.00 60 1020.9
20260506172251 15 45 3.2 14.5 0.00 0.00 0.00 57 1020.9
20260506171749 15 67 8.0 14.5 0.00 0.00 0.00 59 1021.0
20260506171246 15 17 16.1 22.5 0.00 0.00 0.00 58 1021.2
20260506170743 15 358 11.3 16.1 0.00 0.00 0.00 58 1021.3
20260506170239 15 0 9.7 20.9 0.00 0.00 0.00 59 1021.5
20260506165738 15 342 9.7 16.1 0.00 0.00 0.00 59 1021.5
20260506165235 15 33 9.7 14.5 0.00 0.00 0.00 60 1021.6
20260506164732 15 65 9.7 14.5 0.00 0.00 0.00 59 1021.6
20260506164229 15 88 6.4 12.9 0.00 0.00 0.00 59 1021.4
20260506163726 15 337 8.0 17.7 0.00 0.00 0.00 59 1021.3
20260506163220 14 60 6.4 16.1 0.00 0.00 0.00 58 1021.2
20260506162717 15 54 9.7 14.5 0.00 0.00 0.00 58 1021.1
20260506162214 14 110 6.4 11.3 0.00 0.00 0.00 58 1020.9
20260506161712 15 40 11.3 14.5 0.00 0.00 0.00 59 1021.1
20260506161209 14 97 3.2 6.4 0.00 0.00 0.00 59 1021.1
20260506160706 13 10 6.4 11.3 0.00 0.00 0.00 61 1021.0
20260506160203 13 86 8.0 12.9 0.00 0.00 0.00 62 1020.5
20260506155701 13 97 4.8 20.9 0.00 0.00 0.00 63 1020.4
20260506155158 13 14 8.0 16.1 0.00 0.00 0.00 62 1020.6
20260506153300 12 51 9.7 17.7 0.00 0.00 0.00 64 1020.2
20260506152756 12 74 14.5 25.7 0.00 0.00 0.00 64 1020.0
20260506152254 13 106 6.4 17.7 0.00 0.00 0.00 67 1019.7
20260506151753 13 31 4.8 11.3 0.00 0.00 0.00 65 1019.7
20260506151249 12 356 12.9 17.7 0.00 0.00 0.00 68 1019.5
20260506150746 12 116 9.7 14.5 0.00 0.00 0.00 69 1019.4
20260506150243 11 88 4.8 12.9 0.00 0.00 0.00 70 1019.6
20260506145740 11 33 16.1 20.9 0.00 0.00 0.00 72 1019.6
20260506145236 11 33 8.0 14.5 0.00 0.00 0.00 72 1019.8
20260506144734 11 53 17.7 20.9 0.00 0.00 0.00 71 1019.9
20260506144231 11 21 14.5 22.5 0.00 0.00 0.00 72 1019.9
20260506143728 11 35 17.7 22.5 0.00 0.00 0.00 73 1019.6
20260506143225 11 75 8.0 17.7 0.00 0.00 0.00 73 1019.6
20260506142724 10 33 14.5 17.7 0.00 0.00 0.00 74 1019.6
20260506142222 10 80 9.7 16.1 0.00 0.00 0.00 75 1019.6
20260506141719 10 354 9.7 16.1 0.00 0.00 0.00 76 1019.6
20260506141217 10 32 11.3 17.7 0.00 0.00 0.00 75 1019.8
20260506140715 10 17 17.7 22.5 0.00 0.00 0.00 75 1019.9
20260506140212 10 44 14.5 20.9 0.00 0.00 0.00 76 1019.8
20260506135708 10 34 17.7 24.1 0.00 0.00 0.00 78 1019.6
20260506135205 10 104 12.9 16.1 0.00 0.00 0.00 79 1019.5
20260506134701 10 27 9.7 20.9 0.00 0.00 0.00 79 1019.7
20260506134157 10 41 8.0 14.5 0.00 0.00 0.00 80 1020.0
20260506133655 10 50 12.9 16.1 0.00 0.00 0.00 79 1019.6
20260506133151 10 62 8.0 17.7 0.00 0.00 0.00 80 1019.5
20260506132649 10 78 8.0 20.9 0.00 0.00 0.00 80 1019.7
20260506132146 10 52 12.9 25.7 0.00 0.00 0.00 80 1019.7
20260506131643 10 37 8.0 12.9 0.00 0.00 0.00 80 1020.0
20260506131139 9 12 9.7 16.1 0.00 0.00 0.00 81 1019.7
20260506130636 9 45 6.4 25.7 0.00 0.00 0.00 81 1019.5
20260506130134 9 56 17.7 22.5 0.00 0.00 0.00 81 1019.6
20260506125632 9 27 12.9 20.9 0.00 0.00 0.00 82 1019.6
20260506125129 9 15 6.4 12.9 0.00 0.00 0.00 84 1019.6
20260506124627 9 341 9.7 20.9 0.00 0.00 0.00 84 1019.8
20260506124124 9 26 12.9 17.7 0.00 0.00 0.00 84 1019.6
20260506123622 9 9 12.9 24.1 0.00 0.00 0.00 84 1019.4
20260506123121 9 8 16.1 20.9 0.00 0.00 0.00 84 1019.5
20260506122617 9 4 11.3 16.1 0.00 0.00 0.00 84 1019.5
20260506122115 9 35 9.7 17.7 0.00 0.00 0.00 83 1019.2
20260506121612 9 15 11.3 16.1 0.00 0.00 0.00 83 1019.1
20260506121108 9 325 12.9 24.1 0.00 0.00 0.00 83 1019.3
20260506120606 9 358 9.7 12.9 0.00 0.00 0.00 83 1019.0
20260506120103 9 33 9.7 17.7 0.00 0.00 0.00 83 1019.1
20260506115602 9 5 8.0 11.3 0.00 0.00 0.00 82 1019.1
20260506115100 9 18 8.0 24.1 0.00 0.00 0.00 82 1018.9
20260506114557 9 354 9.7 16.1 0.00 0.00 0.00 82 1018.9
20260506114055 9 37 17.7 25.7 0.00 0.00 0.00 81 1018.9
20260506113552 9 24 9.7 25.7 0.00 0.00 0.00 81 1018.8
20260506113049 9 356 6.4 22.5 0.00 0.00 0.00 81 1018.8
20260506112546 9 43 9.7 25.7 0.00 0.00 0.00 81 1018.8
20260506112043 9 10 19.3 25.7 0.00 0.00 0.00 80 1018.9
20260506111541 9 16 14.5 17.7 0.00 0.00 0.00 80 1018.8
20260506111038 9 354 9.7 16.1 0.00 0.00 0.00 80 1018.6
20260506110536 9 15 6.4 14.5 0.00 0.00 0.00 80 1018.5
20260506110033 9 52 6.4 12.9 0.00 0.00 0.00 80 1018.3
20260506105529 10 30 8.0 14.5 0.00 0.00 0.00 80 1018.4
20260506105026 10 4 12.9 20.9 0.00 0.00 0.00 80 1018.3
20260506104524 10 1 8.0 16.1 0.00 0.00 0.00 80 1018.2
20260506104022 10 25 6.4 17.7 0.00 0.00 0.00 80 1018.0
20260506103519 9 14 6.4 24.1 0.00 0.00 0.00 80 1018.0
20260506103015 9 2 14.5 20.9 0.00 0.00 0.00 80 1017.9
20260506102514 9 356 11.3 17.7 0.00 0.00 0.00 81 1017.8
20260506102011 9 48 8.0 16.1 0.00 0.00 0.00 81 1018.0
20260506101507 9 340 17.7 22.5 0.00 0.00 0.00 80 1017.9
20260506101005 9 358 12.9 14.5 0.00 0.00 0.00 81 1018.0
20260506100503 9 11 11.3 20.9 0.00 0.00 0.00 80 1018.1
20260506100001 10 12 9.7 17.7 0.00 0.00 0.00 80 1017.7
20260506095459 10 347 16.1 20.9 0.00 0.00 0.00 81 1017.7
20260506094955 10 356 11.3 17.7 0.00 0.00 0.00 80 1017.8
20260506094453 10 7 9.7 14.5 0.00 0.00 0.00 80 1017.6
20260506093950 10 351 12.9 14.5 0.00 0.00 0.00 80 1017.2
20260506093449 10 13 11.3 17.7 0.00 0.00 0.00 80 1017.1
20260506092946 10 349 11.3 17.7 0.00 0.00 0.00 80 1017.0